StationID,Date,MaxTemp,MinTemp,Precipitation,Snowfall,SnowDepth
"USR0000AGRZ","2004-12-05",28.94,21.02,,,
"USR0000AGRZ","2004-12-06",42.08,21.92,,,
"USR0000AGRZ","2005-08-17",62.06,53.06,,,
"USR0000AGRZ","2005-08-18",66.02,51.08,,,
"USR0000AGRZ","2005-08-19",69.08,48.02,,,
"USR0000AGRZ","2005-08-20",69.98,46.04,,,
"USR0000AGRZ","2005-08-21",62.96,48.02,,,
"USR0000AGRZ","2005-08-22",66.02,41.00,,,
"USR0000AGRZ","2005-08-23",69.08,51.98,,,
"USR0000AGRZ","2005-08-24",62.06,48.92,,,
"USR0000AGRZ","2005-08-25",59.00,48.02,,,
"USR0000AGRZ","2005-08-26",62.06,41.00,,,
"USR0000AGRZ","2005-08-27",68.00,35.06,,,
"USR0000AGRZ","2005-08-28",57.92,46.94,,,
"USR0000AGRZ","2005-08-29",60.98,48.92,,,
"USR0000AGRZ","2005-08-30",62.96,48.92,,,
"USR0000AGRZ","2005-08-31",60.98,46.94,,,
"USR0000AGRZ","2005-09-01",60.98,35.96,,,
"USR0000AGRZ","2005-09-02",62.96,28.94,,,
"USR0000AGRZ","2005-09-03",57.02,44.06,,,
"USR0000AGRZ","2005-09-04",51.08,46.94,,,
"USR0000AGRZ","2005-09-05",59.00,46.04,,,
"USR0000AGRZ","2005-09-06",53.96,46.94,,,
"USR0000AGRZ","2005-09-07",60.98,46.04,,,
"USR0000AGRZ","2005-09-08",64.94,37.94,,,
"USR0000AGRZ","2005-09-09",66.02,48.02,,,
"USR0000AGRZ","2005-09-10",64.04,46.04,,,
"USR0000AGRZ","2005-09-11",64.04,39.92,,,
"USR0000AGRZ","2005-09-12",59.00,50.00,,,
"USR0000AGRZ","2005-09-13",62.06,39.02,,,
"USR0000AGRZ","2005-09-14",60.98,37.94,,,
"USR0000AGRZ","2005-09-15",57.92,35.96,,,
"USR0000AGRZ","2005-09-16",55.94,48.02,,,
"USR0000AGRZ","2005-09-17",55.94,44.96,,,
"USR0000AGRZ","2005-09-18",59.00,39.92,,,
"USR0000AGRZ","2005-09-19",60.98,37.04,,,
"USR0000AGRZ","2005-09-20",62.06,35.96,,,
"USR0000AGRZ","2005-09-21",55.94,42.08,,,
"USR0000AGRZ","2005-09-22",60.08,44.96,,,
"USR0000AGRZ","2005-09-23",60.08,48.92,,,
"USR0000AGRZ","2005-09-24",55.94,48.02,,,
"USR0000AGRZ","2005-09-25",57.02,42.98,,,
"USR0000AGRZ","2005-09-26",57.92,39.02,,,
"USR0000AGRZ","2005-09-27",48.02,37.94,,,
"USR0000AGRZ","2005-09-28",51.08,33.98,,,
"USR0000AGRZ","2005-09-29",55.94,35.06,,,
"USR0000AGRZ","2005-09-30",51.98,42.08,,,
"USR0000AGRZ","2005-10-01",55.04,37.04,,,
"USR0000AGRZ","2005-10-02",48.02,32.00,,,
"USR0000AGRZ","2005-10-03",51.98,28.94,,,
"USR0000AGRZ","2005-10-04",46.94,26.96,,,
"USR0000AGRZ","2005-10-05",46.94,33.98,,,
"USR0000AGRZ","2005-10-06",55.04,28.94,,,
"USR0000AGRZ","2005-10-07",53.96,30.02,,,
"USR0000AGRZ","2005-10-08",48.02,26.96,,,
"USR0000AGRZ","2005-10-09",46.94,30.92,,,
"USR0000AGRZ","2005-10-10",46.04,28.04,,,
"USR0000AGRZ","2005-10-11",48.92,26.06,,,
"USR0000AGRZ","2005-10-12",42.98,28.94,,,
"USR0000AGRZ","2005-10-13",42.08,24.98,,,
"USR0000AGRZ","2005-10-14",42.08,26.96,,,
"USR0000AGRZ","2005-10-15",39.92,26.06,,,
"USR0000AGRZ","2005-10-16",44.06,19.94,,,
"USR0000AGRZ","2005-10-17",48.92,32.00,,,
"USR0000AGRZ","2005-10-18",48.02,30.92,,,
"USR0000AGRZ","2005-10-19",51.98,35.96,,,
"USR0000AGRZ","2005-10-20",48.92,30.02,,,
"USR0000AGRZ","2005-10-21",44.96,30.92,,,
"USR0000AGRZ","2005-10-22",37.94,30.92,,,
"USR0000AGRZ","2005-10-23",35.96,26.06,,,
"USR0000AGRZ","2005-10-24",37.94,19.04,,,
"USR0000AGRZ","2005-10-25",35.06,19.04,,,
"USR0000AGRZ","2005-10-26",35.96,21.02,,,
"USR0000AGRZ","2005-10-27",30.02,15.98,,,
"USR0000AGRZ","2005-10-28",32.00,12.92,,,
"USR0000AGRZ","2005-10-29",30.02,10.04,,,
"USR0000AGRZ","2005-10-30",30.02,14.00,,,
"USR0000AGRZ","2005-10-31",32.00,8.06,,,
"USR0000AGRZ","2005-11-01",19.94,6.08,,,
"USR0000AGRZ","2005-11-02",17.96,3.02,,,
"USR0000AGRZ","2005-11-03",21.92,-0.94,,,
"USR0000AGRZ","2005-11-04",19.94,-2.92,,,
"USR0000AGRZ","2005-11-05",19.04,-4.00,,,
"USR0000AGRZ","2005-11-06",14.00,-7.06,,,
"USR0000AGRZ","2005-11-07",12.02,-11.02,,,
"USR0000AGRZ","2005-11-08",15.08,3.92,,,
"USR0000AGRZ","2005-11-09",24.08,10.04,,,
"USR0000AGRZ","2005-11-10",28.94,8.06,,,
"USR0000AGRZ","2005-11-11",21.92,8.96,,,
"USR0000AGRZ","2005-11-12",24.08,5.00,,,
"USR0000AGRZ","2005-11-13",23.00,1.94,,,
"USR0000AGRZ","2005-11-14",17.06,-0.04,,,
"USR0000AGRZ","2005-11-15",26.06,15.08,,,
"USR0000AGRZ","2005-11-16",26.96,19.04,,,
"USR0000AGRZ","2005-11-17",33.98,26.96,,,
"USR0000AGRZ","2005-11-18",44.06,32.00,,,
"USR0000AGRZ","2005-11-19",37.94,24.08,,,
"USR0000AGRZ","2005-11-20",23.00,14.00,,,
"USR0000AGRZ","2005-11-21",23.00,8.96,,,
"USR0000AGRZ","2005-11-22",24.08,14.00,,,
"USR0000AGRZ","2005-11-23",24.98,17.06,,,
"USR0000AGRZ","2005-11-24",15.98,12.02,,,
"USR0000AGRZ","2005-11-25",14.00,3.02,,,
"USR0000AGRZ","2005-11-26",6.08,-9.94,,,
"USR0000AGRZ","2005-11-27",3.02,-9.94,,,
"USR0000AGRZ","2005-11-28",-0.94,-11.92,,,
"USR0000AGRZ","2005-11-29",8.06,-11.02,,,
"USR0000AGRZ","2005-11-30",6.08,-9.04,,,
"USR0000AGRZ","2005-12-01",6.98,-0.94,,,
"USR0000AGRZ","2005-12-02",12.92,-4.00,,,
"USR0000AGRZ","2005-12-03",10.04,-5.08,,,
"USR0000AGRZ","2005-12-04",6.08,-11.02,,,
"USR0000AGRZ","2005-12-05",19.94,6.98,,,
"USR0000AGRZ","2005-12-06",28.94,19.04,,,
"USR0000AGRZ","2005-12-07",42.08,21.92,,,
"USR0000AGRZ","2005-12-08",48.92,35.96,,,
"USR0000AGRZ","2005-12-09",46.94,26.96,,,
"USR0000AGRZ","2005-12-10",39.02,30.02,,,
"USR0000AGRZ","2005-12-11",32.00,28.04,,,
"USR0000AGRZ","2005-12-12",30.02,15.98,,,
"USR0000AGRZ","2005-12-13",17.96,8.06,,,
"USR0000AGRZ","2005-12-14",23.00,14.00,,,
"USR0000AGRZ","2005-12-15",44.06,21.02,,,
"USR0000AGRZ","2005-12-16",51.98,30.92,,,
"USR0000AGRZ","2005-12-17",35.06,26.06,,,
"USR0000AGRZ","2005-12-18",30.92,24.98,,,
"USR0000AGRZ","2005-12-19",28.04,14.00,,,
"USR0000AGRZ","2005-12-20",17.06,10.04,,,
"USR0000AGRZ","2005-12-21",26.06,17.06,,,
"USR0000AGRZ","2005-12-22",30.02,21.92,,,
"USR0000AGRZ","2005-12-23",30.02,26.06,,,
"USR0000AGRZ","2005-12-24",30.92,21.92,,,
"USR0000AGRZ","2005-12-25",26.06,19.04,,,
"USR0000AGRZ","2005-12-26",26.96,14.00,,,
"USR0000AGRZ","2005-12-27",23.00,12.02,,,
"USR0000AGRZ","2005-12-28",26.06,14.00,,,
"USR0000AGRZ","2005-12-29",26.96,14.00,,,
"USR0000AGRZ","2005-12-30",19.94,14.00,,,
"USR0000AGRZ","2005-12-31",21.02,14.00,,,
"USR0000AGRZ","2006-01-01",24.98,15.08,,,
"USR0000AGRZ","2006-01-02",19.94,12.02,,,
"USR0000AGRZ","2006-01-21",21.92,21.92,,,
"USR0000AGRZ","2006-01-22",21.92,1.04,,,
"USR0000AGRZ","2006-01-23",6.08,-16.06,,,
"USR0000AGRZ","2006-01-24",12.02,-14.98,,,
"USR0000AGRZ","2006-01-25",3.02,-18.04,,,
"USR0000AGRZ","2006-01-26",3.02,-20.92,,,
"USR0000AGRZ","2006-01-27",-2.92,-16.96,,,
"USR0000AGRZ","2006-01-28",6.08,-14.98,,,
"USR0000AGRZ","2006-01-29",8.96,-20.02,,,
"USR0000AGRZ","2006-01-30",15.08,-14.98,,,
"USR0000AGRZ","2006-01-31",17.06,-5.08,,,
"USR0000AGRZ","2006-02-01",15.98,-5.98,,,
"USR0000AGRZ","2006-02-02",10.04,-13.00,,,
"USR0000AGRZ","2006-02-03",5.00,-16.96,,,
"USR0000AGRZ","2006-02-04",8.06,-18.04,,,
"USR0000AGRZ","2006-02-05",42.08,1.94,,,
"USR0000AGRZ","2006-02-06",37.94,30.02,,,
"USR0000AGRZ","2006-02-07",33.98,14.00,,,
"USR0000AGRZ","2006-02-08",28.94,3.92,,,
"USR0000AGRZ","2006-02-09",41.00,12.92,,,
"USR0000AGRZ","2006-02-10",42.98,21.02,,,
"USR0000AGRZ","2006-02-11",46.94,30.92,,,
"USR0000AGRZ","2006-02-12",44.96,28.94,,,
"USR0000AGRZ","2006-02-13",37.94,19.04,,,
"USR0000AGRZ","2006-02-14",39.92,15.98,,,
"USR0000AGRZ","2006-02-15",41.00,21.92,,,
"USR0000AGRZ","2006-02-16",42.08,28.04,,,
"USR0000AGRZ","2006-02-17",30.92,17.06,,,
"USR0000AGRZ","2006-02-18",44.06,26.96,,,
"USR0000AGRZ","2006-02-19",42.98,30.02,,,
"USR0000AGRZ","2006-02-20",37.94,26.96,,,
"USR0000AGRZ","2006-02-21",30.02,12.92,,,
"USR0000AGRZ","2006-02-22",33.08,15.08,,,
"USR0000AGRZ","2006-02-23",21.02,6.98,,,
"USR0000AGRZ","2006-02-24",24.08,1.04,,,
"USR0000AGRZ","2006-02-25",15.98,3.02,,,
"USR0000AGRZ","2006-02-26",21.02,-5.98,,,
"USR0000AGRZ","2006-02-27",17.96,-5.98,,,
"USR0000AGRZ","2006-02-28",19.04,-9.04,,,
"USR0000AGRZ","2006-03-01",15.08,-13.00,,,
"USR0000AGRZ","2006-03-02",17.06,3.92,,,
"USR0000AGRZ","2006-03-03",24.98,6.98,,,
"USR0000AGRZ","2006-03-04",37.94,10.94,,,
"USR0000AGRZ","2006-03-05",35.06,21.92,,,
"USR0000AGRZ","2006-03-06",33.98,21.92,,,
"USR0000AGRZ","2006-03-07",26.96,19.94,,,
"USR0000AGRZ","2006-03-08",35.06,3.92,,,
"USR0000AGRZ","2006-03-09",28.94,-4.00,,,
"USR0000AGRZ","2006-03-10",24.98,-11.02,,,
"USR0000AGRZ","2006-03-11",24.08,-9.94,,,
"USR0000AGRZ","2006-03-12",28.94,-0.04,,,
"USR0000AGRZ","2006-03-13",33.08,-5.98,,,
"USR0000AGRZ","2006-03-14",37.04,-2.92,,,
"USR0000AGRZ","2006-03-15",30.02,-0.04,,,
"USR0000AGRZ","2006-03-16",26.06,-7.06,,,
"USR0000AGRZ","2006-03-17",26.96,-0.94,,,
"USR0000AGRZ","2006-03-18",21.02,10.94,,,
"USR0000AGRZ","2006-03-19",33.08,19.94,,,
"USR0000AGRZ","2006-03-20",33.08,26.06,,,
"USR0000AGRZ","2006-03-21",46.94,21.02,,,
"USR0000AGRZ","2006-03-22",46.04,12.92,,,
"USR0000AGRZ","2006-03-23",44.06,21.92,,,
"USR0000AGRZ","2006-03-24",44.06,26.06,,,
"USR0000AGRZ","2006-03-25",44.96,26.06,,,
"USR0000AGRZ","2006-03-26",46.04,15.98,,,
"USR0000AGRZ","2006-03-27",46.04,19.94,,,
"USR0000AGRZ","2006-03-28",44.96,15.98,,,
"USR0000AGRZ","2006-03-29",41.00,19.04,,,
"USR0000AGRZ","2006-06-13",66.92,51.08,,,
"USR0000AGRZ","2006-06-14",73.94,46.04,,,
"USR0000AGRZ","2006-06-15",64.04,46.94,,,
"USR0000AGRZ","2006-06-16",64.94,51.08,,,
"USR0000AGRZ","2006-06-17",66.92,48.02,,,
"USR0000AGRZ","2006-06-18",66.92,42.98,,,
"USR0000AGRZ","2006-06-19",64.94,39.92,,,
"USR0000AGRZ","2006-06-20",62.96,39.92,,,
"USR0000AGRZ","2006-06-21",64.94,44.06,,,
"USR0000AGRZ","2006-06-22",55.94,44.96,,,
"USR0000AGRZ","2006-06-23",62.06,44.06,,,
"USR0000AGRZ","2006-06-24",66.92,46.94,,,
"USR0000AGRZ","2006-06-25",64.94,48.02,,,
"USR0000AGRZ","2006-06-26",53.96,44.96,,,
"USR0000AGRZ","2006-06-27",66.92,42.98,,,
"USR0000AGRZ","2006-06-28",71.06,39.92,,,
"USR0000AGRZ","2006-06-29",66.92,41.00,,,
"USR0000AGRZ","2006-06-30",57.02,50.00,,,
"USR0000AGRZ","2006-07-01",69.08,46.04,,,
"USR0000AGRZ","2006-07-02",75.92,41.00,,,
"USR0000AGRZ","2006-07-03",69.98,48.02,,,
"USR0000AGRZ","2006-07-04",68.00,46.04,,,
"USR0000AGRZ","2006-07-05",59.00,46.04,,,
"USR0000AGRZ","2006-07-06",60.08,50.00,,,
"USR0000AGRZ","2006-07-07",62.06,53.06,,,
"USR0000AGRZ","2006-07-08",62.06,51.08,,,
"USR0000AGRZ","2006-07-09",73.94,53.06,,,
"USR0000AGRZ","2006-07-10",69.98,53.96,,,
"USR0000AGRZ","2006-07-11",68.00,50.00,,,
"USR0000AGRZ","2006-07-12",73.04,42.98,,,
"USR0000AGRZ","2006-07-13",77.00,48.92,,,
"USR0000AGRZ","2006-07-14",66.02,51.98,,,
"USR0000AGRZ","2006-07-15",57.92,50.00,,,
"USR0000AGRZ","2006-07-16",64.04,44.06,,,
"USR0000AGRZ","2006-07-17",66.92,42.98,,,
"USR0000AGRZ","2006-07-18",66.92,48.02,,,
"USR0000AGRZ","2006-07-19",69.08,41.00,,,
"USR0000AGRZ","2006-07-20",68.00,50.00,,,
"USR0000AGRZ","2006-07-21",64.94,46.94,,,
"USR0000AGRZ","2006-07-22",64.94,48.92,,,
"USR0000AGRZ","2006-07-23",69.08,48.02,,,
"USR0000AGRZ","2006-07-24",62.96,48.92,,,
"USR0000AGRZ","2006-07-25",59.00,48.02,,,
"USR0000AGRZ","2006-07-26",68.00,46.04,,,
"USR0000AGRZ","2006-07-27",75.02,46.04,,,
"USR0000AGRZ","2006-07-28",69.08,44.96,,,
"USR0000AGRZ","2006-07-29",64.04,51.08,,,
"USR0000AGRZ","2006-07-30",59.00,46.04,,,
"USR0000AGRZ","2006-07-31",68.00,44.06,,,
"USR0000AGRZ","2006-08-01",62.06,46.04,,,
"USR0000AGRZ","2006-08-02",60.08,42.08,,,
"USR0000AGRZ","2006-08-03",62.06,44.96,,,
"USR0000AGRZ","2006-08-04",57.92,46.94,,,
"USR0000AGRZ","2006-08-05",66.02,44.96,,,
"USR0000AGRZ","2006-08-06",71.96,46.04,,,
"USR0000AGRZ","2006-08-07",71.96,48.02,,,
"USR0000AGRZ","2006-08-08",75.02,46.94,,,
"USR0000AGRZ","2006-08-09",64.04,48.02,,,
"USR0000AGRZ","2006-08-10",59.00,51.08,,,
"USR0000AGRZ","2006-08-11",59.00,50.00,,,
"USR0000AGRZ","2006-08-12",64.04,51.98,,,
"USR0000AGRZ","2006-08-13",60.08,50.00,,,
"USR0000AGRZ","2006-08-14",57.92,50.00,,,
"USR0000AGRZ","2006-08-15",55.04,48.92,,,
"USR0000AGRZ","2006-08-16",60.98,48.92,,,
"USR0000AGRZ","2006-08-17",60.08,51.08,,,
"USR0000AGRZ","2006-08-18",59.00,48.92,,,
"USR0000AGRZ","2006-08-19",62.06,44.96,,,
"USR0000AGRZ","2006-08-20",55.04,46.04,,,
"USR0000AGRZ","2006-08-21",62.06,44.06,,,
"USR0000AGRZ","2006-08-22",51.98,46.04,,,
"USR0000AGRZ","2006-08-23",60.08,42.98,,,
"USR0000AGRZ","2006-08-24",51.08,42.08,,,
"USR0000AGRZ","2006-08-25",60.98,48.02,,,
"USR0000AGRZ","2006-08-26",55.04,44.96,,,
"USR0000AGRZ","2006-08-27",66.02,42.98,,,
"USR0000AGRZ","2006-08-28",66.02,41.00,,,
"USR0000AGRZ","2006-08-29",66.92,42.98,,,
"USR0000AGRZ","2006-08-30",55.04,42.08,,,
"USR0000AGRZ","2006-08-31",57.92,46.04,,,
"USR0000AGRZ","2006-09-01",66.02,44.96,,,
"USR0000AGRZ","2006-09-02",57.92,46.04,,,
"USR0000AGRZ","2006-09-03",64.04,41.00,,,
"USR0000AGRZ","2006-09-04",59.00,42.98,,,
"USR0000AGRZ","2006-09-05",57.92,41.00,,,
"USR0000AGRZ","2006-09-06",55.94,41.00,,,
"USR0000AGRZ","2006-09-07",64.04,39.02,,,
"USR0000AGRZ","2006-09-08",57.92,44.06,,,
"USR0000AGRZ","2006-09-09",62.06,42.98,,,
"USR0000AGRZ","2006-09-10",62.96,41.00,,,
"USR0000AGRZ","2006-09-11",62.06,42.98,,,
"USR0000AGRZ","2006-09-12",62.96,39.02,,,
"USR0000AGRZ","2006-09-13",66.92,37.04,,,
"USR0000AGRZ","2006-09-14",51.98,37.94,,,
"USR0000AGRZ","2006-09-15",50.00,46.94,,,
"USR0000AGRZ","2006-09-16",53.06,42.98,,,
"USR0000AGRZ","2006-09-17",60.08,35.96,,,
"USR0000AGRZ","2006-09-18",60.98,35.96,,,
"USR0000AGRZ","2006-09-19",51.98,42.08,,,
"USR0000AGRZ","2006-09-20",60.08,39.02,,,
"USR0000AGRZ","2006-09-21",55.04,41.00,,,
"USR0000AGRZ","2006-09-22",53.96,44.96,,,
"USR0000AGRZ","2006-09-23",55.04,39.02,,,
"USR0000AGRZ","2006-09-24",53.06,39.02,,,
"USR0000AGRZ","2006-09-25",57.92,39.02,,,
"USR0000AGRZ","2006-09-26",46.94,39.92,,,
"USR0000AGRZ","2006-09-27",51.98,41.00,,,
"USR0000AGRZ","2006-09-28",48.02,42.08,,,
"USR0000AGRZ","2006-09-29",46.94,35.06,,,
"USR0000AGRZ","2006-09-30",48.92,28.04,,,
"USR0000AGRZ","2006-10-01",44.96,28.04,,,
"USR0000AGRZ","2006-10-02",44.96,35.96,,,
"USR0000AGRZ","2006-10-03",53.06,39.92,,,
"USR0000AGRZ","2006-10-04",53.96,41.00,,,
"USR0000AGRZ","2006-10-05",51.08,39.02,,,
"USR0000AGRZ","2006-10-06",51.98,39.02,,,
"USR0000AGRZ","2006-10-07",55.04,46.94,,,
"USR0000AGRZ","2006-10-08",53.96,42.08,,,
"USR0000AGRZ","2006-10-09",66.92,42.08,,,
"USR0000AGRZ","2006-10-10",60.08,42.98,,,
"USR0000AGRZ","2006-10-11",53.96,35.06,,,
"USR0000AGRZ","2006-10-12",48.92,28.94,,,
"USR0000AGRZ","2006-10-13",46.94,26.96,,,
"USR0000AGRZ","2006-10-14",46.04,24.08,,,
"USR0000AGRZ","2006-10-15",42.08,23.00,,,
"USR0000AGRZ","2006-10-16",42.98,26.96,,,
"USR0000AGRZ","2006-10-17",39.02,28.94,,,
"USR0000AGRZ","2006-10-18",42.98,35.96,,,
"USR0000AGRZ","2006-10-19",46.94,33.08,,,
"USR0000AGRZ","2006-10-20",53.06,30.92,,,
"USR0000AGRZ","2006-10-21",42.08,26.96,,,
"USR0000AGRZ","2006-10-22",37.94,26.96,,,
"USR0000AGRZ","2006-10-23",42.98,24.08,,,
"USR0000AGRZ","2006-10-24",32.00,21.02,,,
"USR0000AGRZ","2006-10-25",39.02,19.94,,,
"USR0000AGRZ","2006-10-26",32.00,28.04,,,
"USR0000AGRZ","2006-10-27",33.08,14.00,,,
"USR0000AGRZ","2006-10-28",30.92,14.00,,,
"USR0000AGRZ","2006-10-29",30.92,24.98,,,
"USR0000AGRZ","2006-10-30",33.98,28.94,,,
"USR0000AGRZ","2006-10-31",30.92,12.92,,,
"USR0000AGRZ","2006-11-01",28.04,6.98,,,
"USR0000AGRZ","2006-11-02",28.04,5.00,,,
"USR0000AGRZ","2006-11-03",26.96,1.94,,,
"USR0000AGRZ","2006-11-04",24.98,1.04,,,
"USR0000AGRZ","2006-11-05",24.98,-2.92,,,
"USR0000AGRZ","2006-11-06",24.08,-5.98,,,
"USR0000AGRZ","2006-11-07",23.00,-2.92,,,
"USR0000AGRZ","2006-11-08",19.94,-2.92,,,
"USR0000AGRZ","2006-11-09",17.96,-7.06,,,
"USR0000AGRZ","2006-11-10",28.04,6.08,,,
"USR0000AGRZ","2006-11-11",28.94,3.02,,,
"USR0000AGRZ","2006-11-12",21.02,-2.92,,,
"USR0000AGRZ","2006-11-13",14.00,-11.92,,,
"USR0000AGRZ","2006-11-14",12.02,-13.00,,,
"USR0000AGRZ","2006-11-15",12.92,-13.00,,,
"USR0000AGRZ","2006-11-16",12.92,-5.98,,,
"USR0000AGRZ","2006-11-17",17.96,-5.08,,,
"USR0000AGRZ","2006-11-18",10.94,-9.04,,,
"USR0000AGRZ","2006-11-19",24.98,-7.06,,,
"USR0000AGRZ","2006-11-20",10.04,-0.04,,,
"USR0000AGRZ","2007-04-13",48.02,32.00,,,
"USR0000AGRZ","2007-04-14",46.04,28.94,,,
"USR0000AGRZ","2007-04-15",50.00,28.04,,,
"USR0000AGRZ","2007-04-16",51.98,28.04,,,
"USR0000AGRZ","2007-04-17",53.06,28.04,,,
"USR0000AGRZ","2007-04-18",46.04,32.00,,,
"USR0000AGRZ","2007-04-19",53.96,32.00,,,
"USR0000AGRZ","2007-04-20",42.98,28.04,,,
"USR0000AGRZ","2007-04-21",55.04,32.00,,,
"USR0000AGRZ","2007-04-22",53.96,28.04,,,
"USR0000AGRZ","2007-04-23",57.02,30.92,,,
"USR0000AGRZ","2007-04-24",51.98,33.08,,,
"USR0000AGRZ","2007-04-25",48.92,30.02,,,
"USR0000AGRZ","2007-04-26",60.08,26.06,,,
"USR0000AGRZ","2007-04-27",53.96,37.04,,,
"USR0000AGRZ","2007-04-28",48.92,28.94,,,
"USR0000AGRZ","2007-04-29",53.96,24.98,,,
"USR0000AGRZ","2007-04-30",53.96,28.04,,,
"USR0000AGRZ","2007-05-01",51.98,32.00,,,
"USR0000AGRZ","2007-05-02",55.94,30.92,,,
"USR0000AGRZ","2007-05-03",53.96,33.08,,,
"USR0000AGRZ","2007-05-04",55.04,33.08,,,
"USR0000AGRZ","2007-05-05",51.98,35.06,,,
"USR0000AGRZ","2007-05-06",57.02,28.04,,,
"USR0000AGRZ","2007-05-07",46.94,32.00,,,
"USR0000AGRZ","2007-05-08",53.06,28.94,,,
"USR0000AGRZ","2007-05-09",51.98,30.92,,,
"USR0000AGRZ","2007-05-10",53.06,33.08,,,
"USR0000AGRZ","2007-05-11",55.94,32.00,,,
"USR0000AGRZ","2007-05-12",50.00,30.92,,,
"USR0000AGRZ","2007-05-13",53.06,37.04,,,
"USR0000AGRZ","2007-05-14",53.06,35.06,,,
"USR0000AGRZ","2007-05-15",59.00,33.98,,,
"USR0000AGRZ","2007-05-16",64.04,39.02,,,
"USR0000AGRZ","2007-05-17",55.94,42.98,,,
"USR0000AGRZ","2007-05-18",57.02,32.00,,,
"USR0000AGRZ","2007-05-19",64.04,28.04,,,
"USR0000AGRZ","2007-05-20",64.94,35.06,,,
"USR0000AGRZ","2007-05-21",64.04,32.00,,,
"USR0000AGRZ","2007-05-22",62.96,41.00,,,
"USR0000AGRZ","2007-05-23",50.00,37.94,,,
"USR0000AGRZ","2007-05-24",64.94,42.08,,,
"USR0000AGRZ","2007-05-25",64.94,42.98,,,
"USR0000AGRZ","2007-05-26",60.08,39.92,,,
"USR0000AGRZ","2007-05-27",59.00,42.08,,,
"USR0000AGRZ","2007-05-28",57.02,39.92,,,
"USR0000AGRZ","2007-05-29",55.04,37.94,,,
"USR0000AGRZ","2007-05-30",57.02,39.92,,,
"USR0000AGRZ","2007-05-31",57.02,39.92,,,
"USR0000AGRZ","2007-06-01",60.08,37.04,,,
"USR0000AGRZ","2007-06-02",57.02,42.08,,,
"USR0000AGRZ","2007-06-03",64.04,41.00,,,
"USR0000AGRZ","2007-06-04",66.92,42.98,,,
"USR0000AGRZ","2007-06-05",66.92,41.00,,,
"USR0000AGRZ","2007-06-06",66.92,44.96,,,
"USR0000AGRZ","2007-06-07",57.92,41.00,,,
"USR0000AGRZ","2007-06-08",55.94,35.96,,,
"USR0000AGRZ","2007-06-09",66.92,39.02,,,
"USR0000AGRZ","2007-06-10",75.92,37.04,,,
"USR0000AGRZ","2007-06-11",66.92,39.92,,,
"USR0000AGRZ","2007-06-12",59.00,39.02,,,
"USR0000AGRZ","2007-06-13",57.92,42.98,,,
"USR0000AGRZ","2007-06-14",66.92,39.92,,,
"USR0000AGRZ","2007-06-15",75.02,37.04,,,
"USR0000AGRZ","2007-06-16",77.00,44.06,,,
"USR0000AGRZ","2007-06-17",64.94,46.94,,,
"USR0000AGRZ","2007-06-18",62.96,44.96,,,
"USR0000AGRZ","2007-06-19",75.02,44.96,,,
"USR0000AGRZ","2007-06-20",80.96,44.96,,,
"USR0000AGRZ","2007-06-21",78.98,53.06,,,
"USR0000AGRZ","2007-06-22",60.08,46.94,,,
"USR0000AGRZ","2007-06-23",60.08,42.98,,,
"USR0000AGRZ","2007-06-24",53.96,46.04,,,
"USR0000AGRZ","2007-06-25",62.06,46.94,,,
"USR0000AGRZ","2007-06-26",66.02,42.08,,,
"USR0000AGRZ","2007-06-27",71.96,39.02,,,
"USR0000AGRZ","2007-06-28",68.00,39.92,,,
"USR0000AGRZ","2007-06-29",69.98,39.92,,,
"USR0000AGRZ","2007-06-30",64.94,46.04,,,
"USR0000AGRZ","2007-07-01",57.02,44.06,,,
"USR0000AGRZ","2007-07-02",59.00,44.96,,,
"USR0000AGRZ","2007-07-03",62.96,44.96,,,
"USR0000AGRZ","2007-07-04",66.92,51.08,,,
"USR0000AGRZ","2007-07-05",60.08,44.06,,,
"USR0000AGRZ","2007-07-06",69.98,42.08,,,
"USR0000AGRZ","2007-07-07",64.04,48.92,,,
"USR0000AGRZ","2007-07-08",66.02,48.92,,,
"USR0000AGRZ","2007-07-09",62.96,51.08,,,
"USR0000AGRZ","2007-07-10",64.94,48.92,,,
"USR0000AGRZ","2007-07-11",66.02,46.94,,,
"USR0000AGRZ","2007-07-12",62.06,48.02,,,
"USR0000AGRZ","2007-07-13",59.00,51.08,,,
"USR0000AGRZ","2007-07-14",64.94,48.02,,,
"USR0000AGRZ","2007-07-15",66.92,48.02,,,
"USR0000AGRZ","2007-07-16",73.94,44.06,,,
"USR0000AGRZ","2007-07-17",75.02,48.02,,,
"USR0000AGRZ","2007-07-18",66.92,53.06,,,
"USR0000AGRZ","2007-07-19",71.06,46.04,,,
"USR0000AGRZ","2007-07-20",69.08,44.06,,,
"USR0000AGRZ","2007-07-21",75.92,46.04,,,
"USR0000AGRZ","2007-07-22",59.00,53.06,,,
"USR0000AGRZ","2007-07-23",62.96,51.08,,,
"USR0000AGRZ","2007-07-24",60.98,50.00,,,
"USR0000AGRZ","2007-07-25",68.00,48.92,,,
"USR0000AGRZ","2007-07-26",71.06,53.06,,,
"USR0000AGRZ","2007-07-27",68.00,48.02,,,
"USR0000AGRZ","2007-07-28",73.94,46.94,,,
"USR0000AGRZ","2007-07-29",78.98,51.08,,,
"USR0000AGRZ","2007-07-30",64.04,55.04,,,
"USR0000AGRZ","2007-07-31",64.94,51.98,,,
"USR0000AGRZ","2007-08-01",66.02,46.94,,,
"USR0000AGRZ","2007-08-02",60.98,48.92,,,
"USR0000AGRZ","2007-08-03",66.02,50.00,,,
"USR0000AGRZ","2007-08-04",59.00,53.06,,,
"USR0000AGRZ","2007-08-05",62.96,53.06,,,
"USR0000AGRZ","2007-08-06",69.98,44.96,,,
"USR0000AGRZ","2007-08-07",73.94,41.00,,,
"USR0000AGRZ","2007-08-08",75.02,44.06,,,
"USR0000AGRZ","2007-08-09",73.04,51.08,,,
"USR0000AGRZ","2007-08-10",73.04,44.06,,,
"USR0000AGRZ","2007-08-11",75.02,42.98,,,
"USR0000AGRZ","2007-08-12",73.94,51.98,,,
"USR0000AGRZ","2007-08-13",80.96,51.98,,,
"USR0000AGRZ","2007-08-14",69.08,51.08,,,
"USR0000AGRZ","2007-08-15",62.06,50.00,,,
"USR0000AGRZ","2007-08-16",69.98,48.02,,,
"USR0000AGRZ","2007-08-17",68.00,48.02,,,
"USR0000AGRZ","2007-08-18",66.92,48.02,,,
"USR0000AGRZ","2007-08-19",64.94,51.08,,,
"USR0000AGRZ","2007-08-20",57.92,48.92,,,
"USR0000AGRZ","2007-08-21",60.98,48.92,,,
"USR0000AGRZ","2007-08-22",60.98,48.92,,,
"USR0000AGRZ","2007-08-23",57.92,46.04,,,
"USR0000AGRZ","2007-08-24",68.00,46.04,,,
"USR0000AGRZ","2007-08-25",68.00,41.00,,,
"USR0000AGRZ","2007-08-26",71.06,44.06,,,
"USR0000AGRZ","2007-08-27",66.92,46.94,,,
"USR0000AGRZ","2007-08-28",69.08,44.96,,,
"USR0000AGRZ","2007-08-29",71.96,44.96,,,
"USR0000AGRZ","2007-08-30",71.96,48.02,,,
"USR0000AGRZ","2007-08-31",66.02,42.98,,,
"USR0000AGRZ","2007-09-01",55.04,48.02,,,
"USR0000AGRZ","2007-09-02",60.08,44.06,,,
"USR0000AGRZ","2007-09-03",64.94,37.94,,,
"USR0000AGRZ","2007-09-04",59.00,44.96,,,
"USR0000AGRZ","2007-09-05",66.02,46.94,,,
"USR0000AGRZ","2007-09-06",64.94,44.96,,,
"USR0000AGRZ","2007-09-07",62.06,44.96,,,
"USR0000AGRZ","2007-09-08",55.04,50.00,,,
"USR0000AGRZ","2007-09-09",57.02,50.00,,,
"USR0000AGRZ","2007-09-10",62.96,42.98,,,
"USR0000AGRZ","2007-09-11",60.98,37.04,,,
"USR0000AGRZ","2007-09-12",53.06,46.94,,,
"USR0000AGRZ","2007-09-13",46.94,41.00,,,
"USR0000AGRZ","2008-04-23",60.08,30.92,,,
"USR0000AGRZ","2008-04-24",55.04,28.04,,,
"USR0000AGRZ","2008-04-25",44.06,30.02,,,
"USR0000AGRZ","2008-04-26",39.02,28.04,,,
"USR0000AGRZ","2008-04-27",48.02,32.00,,,
"USR0000AGRZ","2008-04-28",51.08,26.06,,,
"USR0000AGRZ","2008-04-29",48.92,32.00,,,
"USR0000AGRZ","2008-04-30",48.02,28.94,,,
"USR0000AGRZ","2008-05-01",48.92,30.02,,,
"USR0000AGRZ","2008-05-02",55.04,32.00,,,
"USR0000AGRZ","2008-05-03",53.06,28.04,,,
"USR0000AGRZ","2008-05-04",53.06,32.00,,,
"USR0000AGRZ","2008-05-05",53.96,33.08,,,
"USR0000AGRZ","2008-05-06",53.06,35.06,,,
"USR0000AGRZ","2008-05-07",55.04,28.04,,,
"USR0000AGRZ","2008-05-08",53.96,37.94,,,
"USR0000AGRZ","2008-05-09",55.94,33.08,,,
"USR0000AGRZ","2008-05-10",62.96,30.92,,,
"USR0000AGRZ","2008-05-11",60.98,35.96,,,
"USR0000AGRZ","2008-05-12",55.94,37.94,,,
"USR0000AGRZ","2008-05-13",51.98,32.00,,,
"USR0000AGRZ","2008-05-14",53.96,26.96,,,
"USR0000AGRZ","2008-05-15",51.08,33.98,,,
"USR0000AGRZ","2008-05-16",53.96,37.04,,,
"USR0000AGRZ","2008-05-17",57.02,30.92,,,
"USR0000AGRZ","2008-05-18",53.96,28.04,,,
"USR0000AGRZ","2008-05-19",57.92,32.00,,,
"USR0000AGRZ","2008-05-20",64.94,30.02,,,
"USR0000AGRZ","2008-05-21",62.96,32.00,,,
"USR0000AGRZ","2008-05-22",60.08,32.00,,,
"USR0000AGRZ","2008-05-23",60.98,42.98,,,
"USR0000AGRZ","2008-05-24",46.04,37.94,,,
"USR0000AGRZ","2008-05-25",53.96,35.06,,,